Regional Weather Roundup
Issued by NWS Newport/Morehead, NC

Home | Current Version | Previous Version | Text Only | Print | Product List | Glossary On
Versions: 1 2 3 4 5 6 7 8 9 10 11 12 13 14 15 16 17 18 19 20 21 22 23 24 25 26 27 28 29 30 31 32 33 34 35 36 37 38 39 40 41 42 43 44 45 46 47 48 49 50
000
ASUS42 KMHX 092324
RWRMHX
WEATHER ROUNDUP FOR EASTERN NORTH CAROLINA
NATIONAL WEATHER SERVICE NEWPORT/MOREHEAD CITY NC
600 PM EST FRI DEC 09 2016

NOTE: "FAIR" INDICATES FEW OR NO CLOUDS BELOW 12,000 FEET
WITH NO SIGNIFICANT WEATHER AND/OR OBSTRUCTIONS TO VISIBILITY

NCZ015>017-031-032-045>047-102-103-100000-
NORTH COAST

CITY           SKY/WX    TMP DP  RH WIND       PRES   REMARKS
EDENTON        CLEAR     36  20  53 CALM      30.41R
ELIZABETH CITY CLEAR     33  17  51 NW8       30.40R
KITTY HAWK     CLEAR     37  22  53 NW7       30.38R
MANTEO         CLEAR     38  18  45 N9        30.39R

$$

NCZ045>047-081-094-103-104-100000-
CENTRAL COAST

CITY           SKY/WX    TMP DP  RH WIND       PRES   REMARKS
FRISCO         CLEAR     39  20  46 NW6       30.38R

$$

NCZ095-097-098-100-101-100000-
SOUTHERN COAST

CITY           SKY/WX    TMP DP  RH WIND       PRES   REMARKS
BEAUFORT       CLEAR     36  21  54 N7        30.41R
CEDAR ISLAND   NOT AVBL
JACKSONVILLE   CLEAR     38  20  48 N6        30.41R
PINEY ISLAND   CLEAR    N/A N/A N/A N7        30.40R
WILMINGTON     CLEAR     38  22  52 N6        30.41R


$$

NCZ011>013-027>030-043-044-078>080-089-090>093-098-100000-
COASTAL PLAIN

CITY           SKY/WX    TMP DP  RH WIND       PRES   REMARKS
AHOSKIE        CLEAR     32  16  51 CALM      30.42S
CLINTON        CLEAR     37  20  50 CALM      30.43R
ELIZABETHTOWN  CLEAR     37  22  55 CALM      30.41R
GOLDSBORO      CLEAR     37  15  40 NW6       30.40R
GREENVILLE     CLEAR     36  19  51 CALM      30.42R
HAVELOCK       CLEAR     38  21  50 NW7       30.42R
KENANSVILLE    CLEAR     36  18  48 N5        30.42S
KINSTON        CLEAR     34  19  55 NW3       30.42R
NEW BERN       CLEAR     36  20  52 NW5       30.42R
RICHLANDS      CLEAR     34  22  61 N3        30.42R
ROCKY MOUNT    CLEAR     33  19  56 NW3       30.42R
WASHINGTON     CLEAR     35  18  49 NW5       30.42R
WHITEVILLE     CLEAR     37  23  56 CALM      30.41R

$$

AMZ130-135-150-152-154-156-158-170-250-252-270-ANZ085-086-088-633-658-670-100000-
MARINE OBSERVATIONS

STATION/POSITION TIME  TEMP    WIND        PRES    WAVE   SWELL
                       AIR SEA DIR/SP/G            HT/PER HT/PER
                 (UTC) (F)     (DEG/KT/KT) (MB)    (FT/S) (FT/S)
CHESAPEAKE LIGHT NOT AVBL
64 E VA BEACH    2250   42 59  320/ 21/ 29 1026.7    6/ 6
DUCK             2254   40 52  320/ 14/ 18 1028.0
2 E DUCK         NOT AVBL
OREGON INLET     2254   38 52  330/  7/  9 1028.5
13E OREGON INLT  NOT AVBL
HATTERAS CG      2254   41 54  330/ 13/ 16 1028.4
DIAMOND BUOY     2250   43 76  350/ 16/ 21 1028.2    5/ 9   5/ 9
CAPE LOOKOUT     2300   40     340/ 14/ 17 1029.0
BEAUFORT LAB     2254   41 52  350/ 10/ 13 1028.4
30 SE NEW RVR IN 2308   45 69  350/ 14/ 21 1029.0
30 SE NEW RVR IN 2313      69                N/A     3/ 4
27 SE WRIGHTSVLE 2308   45 69  340/ 14/ 23 1028.7
5 SE WRIGHTSVLE  2308   41 61   10/ 16/ 23 1029.2
225 S CAPE HAT   2250   59 73  350/ 16/ 19 1025.1    6/ 6   3/ 7
41 SE CHARLESTON 2250   50 72  350/ 14/ 17 1028.2    4/ 6   2/ 7

$$




USA.gov is the U.S. government's official web portal to all federal, state and local government web resources and services.